Flag for Finland Weather past 2 weeks in Jakobstad, Finland

Now
32 °F

Mostly cloudy.


Feels Like: 22 °F
Forecast: 31 / 35 °F
Wind: 13 mph from South

Location: Kruunupyy

Current Time: Jan 28, 2015 at 5:10:41 PM

Latest Report: Jan 28, 2015 at 4:20 PM


Visibility: 4 mi

Pressure: 29.03 "Hg

Humidity: 100%

Dew point: 32 °F

Location of JakobstadLocation

Historic Weather in Jakobstad — Graph

°F

Jakobstad temperature yesterday

Maximum temperature yesterday: 32 °F (at 12:20 AM)
Minimum temperature yesterday: 27 °F (at 4:50 PM)
Average temperature yesterday: 30 °F

Past Weeks' High & Low Weather Summary

 TemperatureHumidityPressure
High36 °F (Jan 17, 1:20 PM)100% (Jan 14, 4:20 AM)30.51 "Hg (Jan 14, 4:20 AM)
Low-6 °F (Jan 20, 12:50 AM)72% (Jan 21, 12:50 PM)28.97 "Hg (Jan 16, 8:50 PM)
Average21 °F90%29.76 "Hg
* Reported Jan 13 3:20 PM — Jan 28 3:50 PM, Jakobstad, Weather by CustomWeather, © 2014

Note: Actual official high and low records may vary slightly from our data, if they occured in-between our weather recording intervals... More about our weather records

Advertising

Jakobstad weather history for previous 24 hours

 ConditionsComfort  
Time TempWeatherWind HumidityBarometerVisibility
3:50 PM
Jan 28
34 °FLight rain. Fog.14 mph93%29.06 "Hg3 mi
3:20 PM32 °FLight snow. Ice fog.12 mph100%29.06 "Hg3 mi
2:50 PM32 °FIce fog.12 mph100%29.06 "Hg2 mi
2:20 PM32 °FLight rain. More clouds than sun.13 mph100%29.09 "Hg4 mi
1:50 PM32 °FLight rain. Mostly cloudy.14 mph100%29.09 "Hg4 mi
1:20 PM32 °FLight rain. Mostly cloudy.13 mph100%29.09 "HgN/A
12:50 PM32 °FLight rain. More clouds than sun.17 mph100%29.12 "HgN/A
12:20 PM32 °FLight rain. More clouds than sun.17 mph100%29.12 "Hg4 mi
12:03 PM32 °FLight rain. Cloudy.17 mph100%29.12 "Hg4 mi
11:20 AM32 °FLight rain. Mostly cloudy.N/A100%29.15 "HgN/A
10:50 AM32 °FLight rain. Mostly cloudy.16 mph100%29.15 "Hg2 mi
10:20 AM32 °FMostly cloudy.15 mph100%29.18 "Hg6 mi
9:58 AM32 °FMostly cloudy.15 mph100%29.18 "HgN/A
8:50 AM32 °FLight snow. Mostly cloudy.14 mph93%29.18 "HgN/A
8:20 AM32 °FMostly cloudy.13 mph93%29.21 "HgN/A
8:03 AM30 °FMostly cloudy.13 mph93%29.21 "HgN/A
7:50 AM30 °FPartly cloudy.15 mph93%29.21 "HgN/A
7:20 AM30 °FMostly cloudy.16 mph93%29.21 "HgN/A
6:50 AM30 °FMostly cloudy.17 mph93%29.24 "HgN/A
6:20 AM30 °FPartly cloudy.15 mph93%29.24 "HgN/A
5:50 AM30 °FClear.15 mph93%29.27 "Hg10 mi
5:20 AM30 °FPassing clouds.15 mph93%29.27 "HgN/A
4:50 AM30 °FPassing clouds.16 mph93%29.30 "HgN/A
4:20 AM30 °FPartly cloudy.15 mph93%29.30 "HgN/A
3:50 AM30 °FPartly cloudy.15 mph93%29.33 "HgN/A
3:20 AM30 °FPassing clouds.13 mph93%29.36 "HgN/A
2:50 AM30 °FPartly cloudy.12 mph93%29.39 "HgN/A
2:20 AM30 °FMostly cloudy.12 mph93%29.42 "HgN/A
1:50 AM30 °FPassing clouds.10 mph93%29.42 "HgN/A
1:20 AM28 °FMostly cloudy.12 mph100%29.42 "HgN/A
12:50 AM28 °FPassing clouds.10 mph100%29.45 "HgN/A
12:20 AM28 °FPassing clouds.9 mph93%29.45 "HgN/A
11:50 PM
Jan 27
28 °FPartly cloudy.12 mph100%29.45 "HgN/A
11:20 PM28 °FPartly cloudy.12 mph100%29.47 "HgN/A
10:50 PM28 °FPartly cloudy.10 mph100%29.47 "HgN/A
10:20 PM28 °FMostly cloudy.7 mph100%29.50 "HgN/A
9:50 PM28 °FPartly cloudy.7 mph100%29.50 "HgN/A
9:20 PM28 °FLow clouds.8 mph100%29.50 "HgN/A
8:50 PM28 °FPassing clouds.8 mph100%29.53 "HgN/A
8:20 PM28 °FPassing clouds.8 mph93%29.53 "HgN/A
7:50 PM28 °FPassing clouds.6 mph100%29.56 "HgN/A
7:20 PM28 °FPassing clouds.8 mph100%29.56 "HgN/A
6:50 PM28 °FPassing clouds.8 mph100%29.56 "HgN/A
6:20 PM28 °FPassing clouds.9 mph100%29.56 "HgN/A
5:50 PM28 °FPartly cloudy.9 mph100%29.56 "HgN/A
5:20 PM27 °FPassing clouds.6 mph100%29.59 "Hg3 mi
Weather by CustomWeather, © 2014

See weather overviewHow to use our weather pages